Change the Weather History Date:

Wednesday, April 23, 2014

  Actual Average Record
Temperature  
Mean Temperature 40 °F -  
Max Temperature 53 °F 46 °F 61 °F (2005)
Min Temperature 27 °F 22 °F 1 °F (1972)
Degree Days  
Heating Degree Days 25    
Moisture  
Dew Point 22 °F    
Average Humidity 51    
Maximum Humidity 82    
Minimum Humidity 16    
Precipitation  
Precipitation 0.00 in - - ()
Sea Level Pressure  
Sea Level Pressure 29.68 in    
Wind  
Wind Speed 3 mph (South)    
Max Wind Speed 10 mph    
Max Gust Speed -    
Visibility 10 miles    
Events      
Averages and records for this station are not official NWS values.
T = Trace of Precipitation, MM = Missing Value Source: NWS Daily Summary

Daily Weather History Graph

Daily Weather History Graph

Search for Another Location

Airport or City:

Trip Planner

Search our weather history database for the weather conditions in past years. The results will help you decide how hot, cold, wet, or windy it might be!

Date:

Astronomy

Apr. 23, 2014 Rise Set
Actual Time 5:51 AM AKDT 9:30 PM AKDT
Civil Twilight 4:57 AM AKDT 10:25 PM AKDT
Nautical Twilight 3:34 AM AKDT 11:51 PM AKDT
Astronomical Twilight Sun does not rise Sun does not rise
Moon 4:17 AM AKDT (4/23) 2:07 PM AKDT (4/23)
Length of Visible Light 17h 28m
Length of Day
15h 38m
Waning Crescent, 33% of the Moon is Illuminated
Apr 23
Waning Crescent
Apr 28
New
May 6
First Quarter
May 14
Full
May 21
Last Quarter

Hourly Weather History & Observations

Time (AKDT) Temp. Windchill Dew Point Humidity Pressure Visibility Wind Dir Wind Speed Gust Speed Precip Events Conditions
12:53 AM 32.0 °F - 23.0 °F 69% 29.70 in 10.0 mi Calm Calm - N/A   Clear
1:53 AM 28.0 °F - 21.9 °F 78% 29.70 in 10.0 mi Calm Calm - N/A   Clear
2:53 AM 28.0 °F 24.2 °F 21.9 °F 78% 29.70 in 10.0 mi SSE 3.5 mph - N/A   Clear
3:53 AM 27.0 °F 23.0 °F 21.0 °F 78% 29.70 in 10.0 mi South 3.5 mph - N/A   Clear
4:53 AM 28.9 °F 23.9 °F 23.0 °F 78% 29.70 in 10.0 mi South 4.6 mph - N/A   Clear
5:53 AM 28.9 °F - 23.0 °F 78% 29.70 in 10.0 mi Calm Calm - N/A   Overcast
6:53 AM 30.0 °F - 25.0 °F 82% 29.70 in 10.0 mi Calm Calm - N/A   Mostly Cloudy
7:53 AM 34.0 °F 31.0 °F 25.0 °F 70% 29.70 in 10.0 mi South 3.5 mph - N/A   Overcast
8:53 AM 37.0 °F 33.3 °F 25.0 °F 62% 29.70 in 10.0 mi SSE 4.6 mph - N/A   Clear
9:53 AM 41.0 °F 38.0 °F 27.0 °F 57% 29.70 in 10.0 mi SSE 4.6 mph - N/A   Clear
10:53 AM 44.1 °F 41.5 °F 25.0 °F 47% 29.70 in 10.0 mi Variable 4.6 mph - N/A   Clear
11:53 AM 46.0 °F 43.1 °F 24.1 °F 42% 29.69 in 10.0 mi ESE 5.8 mph - N/A   Clear
12:53 PM 48.9 °F - 25.0 °F 39% 29.69 in 10.0 mi SE 6.9 mph - N/A   Partly Cloudy
1:53 PM 50.0 °F - 24.1 °F 36% 29.68 in 10.0 mi South 10.4 mph - N/A   Clear
2:53 PM 51.1 °F - 21.0 °F 31% 29.67 in 10.0 mi South 10.4 mph - N/A   Clear
3:53 PM 51.1 °F - 19.0 °F 28% 29.67 in 10.0 mi ESE 5.8 mph - N/A   Clear
4:53 PM 51.1 °F - 19.9 °F 29% 29.65 in 10.0 mi South 9.2 mph - N/A   Clear
5:53 PM 52.0 °F - 19.9 °F 28% 29.64 in 10.0 mi South 9.2 mph - N/A   Scattered Clouds
6:53 PM 52.0 °F - 18.0 °F 26% 29.64 in 10.0 mi South 9.2 mph - N/A   Partly Cloudy
7:53 PM 50.0 °F - 17.1 °F 27% 29.63 in 10.0 mi South 5.8 mph - N/A   Clear
8:53 PM 46.9 °F - 17.1 °F 30% 29.64 in 10.0 mi SW 5.8 mph - N/A   Clear
9:53 PM 37.0 °F - 19.0 °F 48% 29.66 in 10.0 mi Calm Calm - N/A   Clear
10:53 PM 32.0 °F - 19.9 °F 61% 29.66 in 10.0 mi Calm Calm - N/A   Clear
11:53 PM 32.0 °F 27.5 °F 21.0 °F 64% 29.65 in 10.0 mi West 4.6 mph - N/A   Clear